FLIWT27 AYPY-RPLL

Flight info

Callsign FLIWT27
Flight time N/A
Altitude 34000
Route STARF1 STARF H539 KIBAV B462 OLGAN/N0454F360 B462 TAC W9 AKDAP AKDAP1A
Aircraft A320/M-SDE2E3FGHIRWY/LB1

Departure

Time N/A
Airport Port Moresby Jacksons International Airport (AYPY)

Arrival

Time 2026-05-06 10:18
Airport Ninoy Aquino International Airport (RPLL)
Time Latitude Longitude Altitude Speed Heading
2026-05-06 08:06 4.00495 131.49579 33811 ft 442 kts 319°
2026-05-06 08:06 4.02792 131.47540 33809 ft 442 kts 319°
2026-05-06 08:06 4.07427 131.43473 33807 ft 443 kts 319°
2026-05-06 08:07 4.12054 131.39439 33807 ft 443 kts 319°
2026-05-06 08:07 4.16712 131.35365 33807 ft 443 kts 319°
2026-05-06 08:08 4.21339 131.31290 33812 ft 443 kts 319°
2026-05-06 08:08 4.25963 131.27221 33813 ft 443 kts 319°
2026-05-06 08:09 4.30595 131.23152 33813 ft 443 kts 319°
2026-05-06 08:09 4.35228 131.19084 33810 ft 443 kts 319°
2026-05-06 08:10 4.39858 131.15017 33810 ft 443 kts 319°
2026-05-06 08:10 4.44499 131.10936 33812 ft 443 kts 319°
2026-05-06 08:11 4.49132 131.06862 33812 ft 443 kts 319°
2026-05-06 08:11 4.53761 131.02800 33813 ft 443 kts 319°
2026-05-06 08:12 4.58396 130.98726 33813 ft 443 kts 319°
2026-05-06 08:12 4.63019 130.94650 33813 ft 443 kts 319°
2026-05-06 08:13 4.67659 130.90578 33813 ft 443 kts 319°
2026-05-06 08:13 4.72285 130.86505 33813 ft 443 kts 319°
2026-05-06 08:14 4.76917 130.82426 33814 ft 443 kts 319°
2026-05-06 08:14 4.81516 130.78375 33815 ft 443 kts 319°
2026-05-06 08:15 4.86184 130.74273 33815 ft 443 kts 319°
2026-05-06 08:15 4.90788 130.70222 33816 ft 443 kts 319°
2026-05-06 08:16 4.95415 130.66135 33809 ft 444 kts 319°
2026-05-06 08:16 5.00054 130.62045 33807 ft 444 kts 319°
2026-05-06 08:17 5.04702 130.57952 33811 ft 445 kts 319°
2026-05-06 08:17 5.09347 130.53856 33812 ft 445 kts 319°
2026-05-06 08:18 5.14000 130.49759 33810 ft 445 kts 319°
2026-05-06 08:18 5.18657 130.45663 33814 ft 445 kts 319°
2026-05-06 08:19 5.23307 130.41571 33819 ft 445 kts 319°
2026-05-06 08:19 5.27955 130.37465 33812 ft 445 kts 319°
2026-05-06 08:20 5.32603 130.33354 33811 ft 446 kts 319°
2026-05-06 08:20 5.37268 130.29240 33811 ft 446 kts 319°
2026-05-06 08:21 5.41926 130.25128 33813 ft 446 kts 318°
2026-05-06 08:21 5.46597 130.21006 33816 ft 446 kts 318°
2026-05-06 08:22 5.51257 130.16892 33817 ft 446 kts 319°
2026-05-06 08:22 5.55914 130.12781 33813 ft 447 kts 319°
2026-05-06 08:23 5.60592 130.08647 33808 ft 448 kts 319°
2026-05-06 08:23 5.65269 130.04515 33807 ft 448 kts 319°
2026-05-06 08:24 5.69951 130.00375 33814 ft 449 kts 318°
2026-05-06 08:24 5.74637 129.96230 33813 ft 449 kts 319°
2026-05-06 08:25 5.79326 129.92089 33821 ft 450 kts 318°
2026-05-06 08:25 5.84024 129.87936 33822 ft 450 kts 318°
2026-05-06 08:26 5.88721 129.83787 33821 ft 450 kts 319°
2026-05-06 08:26 5.93426 129.79630 33829 ft 450 kts 319°
2026-05-06 08:27 5.98122 129.75479 33828 ft 450 kts 319°
2026-05-06 08:27 6.02813 129.71323 33830 ft 450 kts 319°
2026-05-06 08:28 6.07501 129.67162 33830 ft 449 kts 319°
2026-05-06 08:28 6.12197 129.63004 33829 ft 449 kts 319°
2026-05-06 08:29 6.16856 129.58878 33827 ft 450 kts 319°
2026-05-06 08:29 6.21544 129.54726 33836 ft 449 kts 319°
2026-05-06 08:30 6.26202 129.50598 33829 ft 449 kts 319°
2026-05-06 08:30 6.30886 129.46443 33825 ft 449 kts 319°
2026-05-06 08:31 6.35572 129.42291 33826 ft 449 kts 319°
2026-05-06 08:31 6.40244 129.38149 33830 ft 448 kts 319°
2026-05-06 08:32 6.44928 129.33998 33832 ft 448 kts 318°
2026-05-06 08:32 6.49596 129.29860 33830 ft 447 kts 318°
2026-05-06 08:33 6.54259 129.25710 33827 ft 447 kts 318°
2026-05-06 08:33 6.58920 129.21564 33822 ft 447 kts 318°
2026-05-06 08:34 6.65927 129.15345 33821 ft 448 kts 319°
2026-05-06 08:35 6.70603 129.11198 33826 ft 448 kts 318°
2026-05-06 08:35 6.75278 129.07037 33824 ft 449 kts 318°
2026-05-06 08:36 6.79925 129.02900 33831 ft 449 kts 318°
2026-05-06 08:36 6.84612 128.98735 33832 ft 450 kts 318°
2026-05-06 08:37 6.89308 128.94570 33828 ft 450 kts 318°
2026-05-06 08:37 6.93996 128.90405 33831 ft 450 kts 318°
2026-05-06 08:38 6.98694 128.86227 33836 ft 450 kts 318°
2026-05-06 08:38 7.02573 128.82768 33836 ft 449 kts 318°
2026-05-06 08:39 7.07255 128.78601 33837 ft 449 kts 319°
2026-05-06 08:39 7.11929 128.74441 33828 ft 449 kts 319°
2026-05-06 08:40 7.16599 128.70280 33827 ft 448 kts 319°
2026-05-06 08:40 7.21269 128.66114 33821 ft 449 kts 319°
2026-05-06 08:41 7.25945 128.61954 33823 ft 449 kts 319°
2026-05-06 08:41 7.30623 128.57786 33822 ft 448 kts 319°
2026-05-06 08:42 7.35283 128.53624 33824 ft 448 kts 319°
2026-05-06 08:42 7.39947 128.49459 33825 ft 448 kts 319°
2026-05-06 08:43 7.44608 128.45299 33817 ft 448 kts 320°
2026-05-06 08:43 7.49245 128.41166 33819 ft 448 kts 319°
2026-05-06 08:44 7.53916 128.37009 33822 ft 448 kts 319°
2026-05-06 08:44 7.58582 128.32839 33823 ft 448 kts 319°
2026-05-06 08:45 7.63258 128.28655 33908 ft 453 kts 320°
2026-05-06 08:45 7.65624 128.26541 34035 ft 455 kts 319°
2026-05-06 08:45 7.67996 128.24423 34219 ft 456 kts 319°
2026-05-06 08:45 7.70369 128.22304 34471 ft 456 kts 319°
2026-05-06 08:46 7.72733 128.20190 34721 ft 455 kts 319°
2026-05-06 08:46 7.75096 128.18075 34933 ft 455 kts 320°
2026-05-06 08:46 7.77472 128.15951 35123 ft 455 kts 320°
2026-05-06 08:46 7.79832 128.13841 35333 ft 455 kts 319°
2026-05-06 08:47 7.82207 128.11713 35578 ft 454 kts 319°
2026-05-06 08:47 7.84556 128.09605 35779 ft 454 kts 320°
2026-05-06 08:47 7.86921 128.07482 35836 ft 455 kts 320°
2026-05-06 08:48 7.91658 128.03242 35835 ft 454 kts 320°
2026-05-06 08:48 7.96375 127.99029 35836 ft 453 kts 319°
2026-05-06 08:49 8.01088 127.94812 35834 ft 453 kts 319°
2026-05-06 08:49 8.05809 127.90574 35837 ft 454 kts 319°
2026-05-06 08:50 8.10519 127.86348 35832 ft 454 kts 319°
2026-05-06 08:50 8.15212 127.82134 35834 ft 454 kts 319°
2026-05-06 08:51 8.19968 127.77877 35838 ft 454 kts 319°
2026-05-06 08:51 8.24655 127.73675 35837 ft 454 kts 320°
2026-05-06 08:52 8.29383 127.69433 35835 ft 455 kts 319°
2026-05-06 08:52 8.34108 127.65194 35834 ft 455 kts 319°
2026-05-06 08:53 8.38839 127.60944 35840 ft 455 kts 319°
2026-05-06 08:53 8.43571 127.56701 35839 ft 455 kts 319°
2026-05-06 08:54 8.48310 127.52450 35811 ft 457 kts 319°
2026-05-06 08:54 8.53058 127.48174 35815 ft 458 kts 319°
2026-05-06 08:55 8.57809 127.43892 35836 ft 458 kts 319°
2026-05-06 08:55 8.62552 127.39629 35846 ft 456 kts 319°
2026-05-06 08:56 8.67308 127.35362 35850 ft 456 kts 319°
2026-05-06 08:56 8.72036 127.31106 35856 ft 455 kts 319°
2026-05-06 08:57 8.76755 127.26850 35848 ft 455 kts 319°
2026-05-06 08:57 8.81481 127.22584 35850 ft 455 kts 318°
2026-05-06 08:58 8.86169 127.18358 35860 ft 454 kts 318°
2026-05-06 08:58 8.90876 127.14117 35856 ft 454 kts 318°
2026-05-06 08:59 8.95582 127.09876 35858 ft 453 kts 318°
2026-05-06 08:59 9.00282 127.05637 35858 ft 452 kts 318°
2026-05-06 09:00 9.04982 127.01400 35856 ft 452 kts 318°
2026-05-06 09:00 9.09674 126.97166 35852 ft 452 kts 318°
2026-05-06 09:01 9.14359 126.92936 35854 ft 451 kts 318°
2026-05-06 09:01 9.19031 126.88712 35854 ft 451 kts 318°
2026-05-06 09:02 9.23707 126.84482 35853 ft 450 kts 318°
2026-05-06 09:02 9.28369 126.80267 35842 ft 450 kts 318°
2026-05-06 09:03 9.33033 126.76044 35841 ft 449 kts 317°
2026-05-06 09:03 9.37689 126.71822 35849 ft 449 kts 317°
2026-05-06 09:04 9.42346 126.67623 35854 ft 448 kts 318°
2026-05-06 09:04 9.46997 126.63419 35857 ft 448 kts 317°
2026-05-06 09:05 9.51642 126.59211 35857 ft 447 kts 318°
2026-05-06 09:05 9.56281 126.55011 35857 ft 447 kts 318°
2026-05-06 09:06 9.60921 126.50809 35858 ft 447 kts 318°
2026-05-06 09:06 9.65557 126.46606 35862 ft 447 kts 317°
2026-05-06 09:07 9.70186 126.42396 35867 ft 447 kts 317°
2026-05-06 09:07 9.74819 126.38188 35870 ft 447 kts 317°
2026-05-06 09:08 9.79417 126.34013 35869 ft 447 kts 317°
2026-05-06 09:08 9.84049 126.29802 35870 ft 447 kts 318°
2026-05-06 09:09 9.88680 126.25596 35871 ft 447 kts 318°
2026-05-06 09:09 9.93314 126.21381 35876 ft 447 kts 317°
2026-05-06 09:10 9.97944 126.17175 35878 ft 447 kts 318°
2026-05-06 09:10 10.02576 126.12970 35877 ft 447 kts 317°
2026-05-06 09:11 10.07196 126.08756 35876 ft 446 kts 317°
2026-05-06 09:11 10.11821 126.04539 35877 ft 446 kts 317°
2026-05-06 09:12 10.16444 126.00340 35878 ft 446 kts 317°
2026-05-06 09:12 10.21066 125.96136 35879 ft 446 kts 317°
2026-05-06 09:13 10.25686 125.91925 35878 ft 446 kts 317°
2026-05-06 09:13 10.30298 125.87716 35879 ft 446 kts 317°
2026-05-06 09:14 10.34870 125.83540 35881 ft 446 kts 317°
2026-05-06 09:14 10.39486 125.79332 35879 ft 445 kts 317°
2026-05-06 09:15 10.44091 125.75128 35876 ft 445 kts 317°
2026-05-06 09:15 10.48697 125.70923 35878 ft 445 kts 317°
2026-05-06 09:16 10.53293 125.66726 35881 ft 444 kts 317°
2026-05-06 09:16 10.57888 125.62526 35882 ft 444 kts 317°
2026-05-06 09:17 10.62487 125.58324 35877 ft 444 kts 317°
2026-05-06 09:17 10.67081 125.54118 35880 ft 444 kts 317°
2026-05-06 09:18 10.71661 125.49919 35877 ft 444 kts 317°
2026-05-06 09:18 10.76259 125.45706 35868 ft 444 kts 317°
2026-05-06 09:19 10.80819 125.41520 35865 ft 445 kts 317°
2026-05-06 09:19 10.85415 125.37304 35870 ft 444 kts 317°
2026-05-06 09:20 10.89996 125.33105 35869 ft 444 kts 317°
2026-05-06 09:20 10.94603 125.28883 35870 ft 444 kts 316°
2026-05-06 09:21 10.99186 125.24670 35873 ft 445 kts 316°
2026-05-06 09:21 11.03778 125.20453 35867 ft 445 kts 316°
2026-05-06 09:22 11.08376 125.16227 35860 ft 445 kts 317°
2026-05-06 09:22 11.12982 125.11998 35863 ft 446 kts 317°
2026-05-06 09:23 11.17603 125.07772 35864 ft 446 kts 317°
2026-05-06 09:23 11.22213 125.03539 35865 ft 446 kts 317°
2026-05-06 09:24 11.27279 124.99877 35865 ft 448 kts 325°
2026-05-06 09:24 11.32485 124.96380 35865 ft 448 kts 325°
2026-05-06 09:25 11.37692 124.92878 35858 ft 448 kts 325°
2026-05-06 09:25 11.42887 124.89381 35861 ft 448 kts 325°
2026-05-06 09:26 11.48099 124.85881 35865 ft 448 kts 325°
2026-05-06 09:26 11.53306 124.82386 35861 ft 448 kts 325°
2026-05-06 09:27 11.58517 124.78882 35862 ft 449 kts 325°
2026-05-06 09:27 11.62845 124.75964 35864 ft 449 kts 325°
2026-05-06 09:28 11.68903 124.71874 35858 ft 449 kts 325°
2026-05-06 09:28 11.74120 124.68366 35856 ft 449 kts 325°
2026-05-06 09:29 11.79339 124.64857 35863 ft 449 kts 324°
2026-05-06 09:29 11.83707 124.61909 35857 ft 449 kts 325°
2026-05-06 09:30 11.88919 124.58391 35858 ft 449 kts 324°
2026-05-06 09:30 11.94976 124.54301 35860 ft 449 kts 325°
2026-05-06 09:31 11.99338 124.51356 35863 ft 449 kts 324°
2026-05-06 09:31 12.04526 124.47857 35857 ft 449 kts 324°
2026-05-06 09:32 12.09733 124.44338 35853 ft 449 kts 324°
2026-05-06 09:32 12.14949 124.40808 35864 ft 449 kts 324°
2026-05-06 09:33 12.20160 124.37286 35870 ft 449 kts 324°
2026-05-06 09:33 12.25376 124.33761 35870 ft 449 kts 324°
2026-05-06 09:34 12.30588 124.30237 35881 ft 449 kts 324°
2026-05-06 09:34 12.35795 124.26706 35882 ft 449 kts 324°
2026-05-06 09:35 12.40907 124.23036 35878 ft 448 kts 321°
2026-05-06 09:35 12.45830 124.19122 35884 ft 448 kts 319°
2026-05-06 09:36 12.50718 124.15188 35882 ft 448 kts 319°
2026-05-06 09:36 12.55667 124.11299 35884 ft 448 kts 320°
2026-05-06 09:37 12.60636 124.07443 35884 ft 448 kts 320°
2026-05-06 09:37 12.65598 124.03575 35885 ft 448 kts 320°
2026-05-06 09:38 12.70538 123.99707 35884 ft 447 kts 320°
2026-05-06 09:38 12.75445 123.95857 35885 ft 447 kts 320°
2026-05-06 09:39 12.80385 123.91983 35881 ft 447 kts 320°
2026-05-06 09:39 12.85322 123.88116 35880 ft 447 kts 321°
2026-05-06 09:40 12.90268 123.84251 35884 ft 447 kts 321°
2026-05-06 09:40 12.97656 123.78450 35869 ft 446 kts 320°
2026-05-06 09:41 13.02591 123.74573 35873 ft 446 kts 320°
2026-05-06 09:41 13.07523 123.70699 35879 ft 446 kts 320°
2026-05-06 09:42 13.12447 123.66813 35895 ft 449 kts 319°
2026-05-06 09:42 13.17311 123.62679 35886 ft 459 kts 317°
2026-05-06 09:43 13.22183 123.58344 35893 ft 468 kts 317°
2026-05-06 09:43 13.27166 123.53950 35892 ft 474 kts 317°
2026-05-06 09:44 13.32216 123.49572 35884 ft 477 kts 318°
2026-05-06 09:44 13.37299 123.45179 35894 ft 477 kts 318°
2026-05-06 09:45 13.42362 123.40780 35896 ft 477 kts 317°
2026-05-06 09:45 13.47430 123.36360 35894 ft 477 kts 317°
2026-05-06 09:46 13.52494 123.31950 35896 ft 477 kts 317°
2026-05-06 09:46 13.57390 123.27364 35899 ft 475 kts 308°
2026-05-06 09:47 13.60766 123.21672 35898 ft 470 kts 294°
2026-05-06 09:47 13.63657 123.15579 35897 ft 470 kts 294°
2026-05-06 09:48 13.66529 123.09544 35899 ft 470 kts 294°
2026-05-06 09:48 13.69390 123.03553 35902 ft 470 kts 294°
2026-05-06 09:49 13.72289 122.97473 35906 ft 470 kts 294°
2026-05-06 09:49 13.75147 122.91474 35906 ft 470 kts 294°
2026-05-06 09:50 13.78018 122.85438 35911 ft 470 kts 294°
2026-05-06 09:50 13.80892 122.79405 35909 ft 470 kts 294°
2026-05-06 09:51 13.83768 122.73365 35900 ft 467 kts 294°
2026-05-06 09:51 13.85172 122.70415 35879 ft 451 kts 294°
2026-05-06 09:51 13.86539 122.67546 35889 ft 442 kts 294°
2026-05-06 09:52 13.89212 122.61915 35889 ft 436 kts 294°
2026-05-06 09:52 13.91860 122.56324 35883 ft 433 kts 294°
2026-05-06 09:53 13.94492 122.50747 35885 ft 433 kts 294°
2026-05-06 09:53 13.95806 122.47965 35725 ft 432 kts 294°
2026-05-06 09:53 13.97118 122.45185 35161 ft 431 kts 294°
2026-05-06 09:54 13.98423 122.42412 34687 ft 428 kts 294°
2026-05-06 09:54 13.99719 122.39665 34193 ft 425 kts 295°
2026-05-06 09:54 14.00990 122.36977 33733 ft 422 kts 294°
2026-05-06 09:54 14.02301 122.34246 33228 ft 418 kts 295°
2026-05-06 09:55 14.03581 122.31566 32700 ft 416 kts 295°
2026-05-06 09:55 14.04844 122.28904 32142 ft 411 kts 294°
2026-05-06 09:55 14.06067 122.26302 31333 ft 407 kts 294°
2026-05-06 09:55 14.07287 122.23690 30544 ft 404 kts 294°
2026-05-06 09:56 14.08513 122.21065 29753 ft 400 kts 294°
2026-05-06 09:56 14.09702 122.18533 28932 ft 395 kts 295°
2026-05-06 09:56 14.10892 122.16008 28100 ft 391 kts 295°
2026-05-06 09:56 14.12079 122.13492 27325 ft 386 kts 295°
2026-05-06 09:57 14.13245 122.11021 26587 ft 382 kts 295°
2026-05-06 09:57 14.14400 122.08576 25829 ft 378 kts 295°
2026-05-06 09:57 14.15546 122.06154 25090 ft 374 kts 296°
2026-05-06 09:57 14.16682 122.03752 24373 ft 371 kts 296°
2026-05-06 09:58 14.17803 122.01377 23682 ft 367 kts 296°
2026-05-06 09:58 14.18915 121.99017 22894 ft 364 kts 296°
2026-05-06 09:58 14.20015 121.96681 22105 ft 361 kts 296°
2026-05-06 09:58 14.21123 121.94331 20899 ft 371 kts 296°
2026-05-06 09:59 14.22251 121.91929 19955 ft 373 kts 296°
2026-05-06 09:59 14.23321 121.89536 19484 ft 361 kts 294°
2026-05-06 09:59 14.24325 121.87198 18920 ft 354 kts 294°
2026-05-06 09:59 14.25301 121.84882 18262 ft 350 kts 294°
2026-05-06 10:00 14.26263 121.82592 17563 ft 346 kts 294°
2026-05-06 10:00 14.27219 121.80324 16821 ft 344 kts 294°
2026-05-06 10:00 14.28174 121.78082 16156 ft 340 kts 295°
2026-05-06 10:00 14.29122 121.75867 15513 ft 336 kts 295°
2026-05-06 10:01 14.30060 121.73677 14895 ft 332 kts 295°
2026-05-06 10:01 14.30990 121.71517 14244 ft 330 kts 296°
2026-05-06 10:01 14.31873 121.69340 13672 ft 326 kts 288°
2026-05-06 10:01 14.32187 121.67070 13099 ft 322 kts 270°
2026-05-06 10:02 14.32075 121.64726 12530 ft 325 kts 268°
2026-05-06 10:02 14.31946 121.62417 12239 ft 321 kts 268°
2026-05-06 10:02 14.31814 121.60123 11919 ft 319 kts 268°
2026-05-06 10:02 14.31679 121.57855 11605 ft 316 kts 267°
2026-05-06 10:03 14.31544 121.55608 11291 ft 313 kts 268°
2026-05-06 10:03 14.31410 121.53375 10920 ft 312 kts 267°
2026-05-06 10:03 14.31282 121.51219 10587 ft 311 kts 267°
2026-05-06 10:03 14.31148 121.48970 10209 ft 310 kts 267°
2026-05-06 10:04 14.31020 121.46802 9866 ft 305 kts 266°
2026-05-06 10:04 14.30892 121.44611 9204 ft 302 kts 266°
2026-05-06 10:04 14.30767 121.42469 8590 ft 298 kts 266°
2026-05-06 10:04 14.30643 121.40352 7939 ft 294 kts 266°
2026-05-06 10:05 14.30519 121.38255 7267 ft 292 kts 267°
2026-05-06 10:05 14.30397 121.36178 6655 ft 288 kts 267°
2026-05-06 10:05 14.30275 121.34109 6174 ft 289 kts 267°
2026-05-06 10:05 14.30153 121.32047 5779 ft 287 kts 266°
2026-05-06 10:06 14.30032 121.30001 5397 ft 285 kts 266°
2026-05-06 10:06 14.29910 121.27965 5040 ft 284 kts 266°
2026-05-06 10:06 14.29791 121.25931 4984 ft 285 kts 266°
2026-05-06 10:06 14.29670 121.23892 4986 ft 285 kts 266°
2026-05-06 10:07 14.29547 121.21849 4987 ft 288 kts 266°
2026-05-06 10:07 14.29423 121.19788 4987 ft 287 kts 266°
2026-05-06 10:07 14.29300 121.17735 4984 ft 288 kts 266°
2026-05-06 10:07 14.29176 121.15665 4984 ft 288 kts 266°
2026-05-06 10:08 14.29053 121.13617 4983 ft 286 kts 266°
2026-05-06 10:08 14.28929 121.11565 4983 ft 288 kts 266°
2026-05-06 10:08 14.28803 121.09515 4980 ft 285 kts 266°
2026-05-06 10:08 14.28677 121.07470 4980 ft 286 kts 266°
2026-05-06 10:09 14.28551 121.05422 4980 ft 288 kts 266°
2026-05-06 10:09 14.28424 121.03365 4980 ft 286 kts 266°
2026-05-06 10:09 14.28300 121.01310 4981 ft 288 kts 266°
2026-05-06 10:09 14.28174 120.99238 4983 ft 290 kts 266°
2026-05-06 10:10 14.28049 120.97174 4982 ft 287 kts 266°
2026-05-06 10:10 14.27926 120.95153 4976 ft 275 kts 266°
2026-05-06 10:10 14.27815 120.93274 4975 ft 250 kts 266°
2026-05-06 10:10 14.27713 120.91540 4976 ft 239 kts 266°
2026-05-06 10:11 14.27804 120.89849 4990 ft 236 kts 286°
2026-05-06 10:11 14.28509 120.88335 4969 ft 237 kts 309°
2026-05-06 10:11 14.29744 120.87228 4642 ft 234 kts 333°
2026-05-06 10:11 14.31157 120.86425 4356 ft 232 kts 333°
2026-05-06 10:12 14.32562 120.85622 4072 ft 230 kts 333°
2026-05-06 10:12 14.33953 120.84822 3806 ft 228 kts 332°
2026-05-06 10:12 14.35330 120.84027 3544 ft 226 kts 332°
2026-05-06 10:12 14.36668 120.83247 3414 ft 216 kts 332°
2026-05-06 10:13 14.37966 120.82529 3343 ft 207 kts 342°
2026-05-06 10:13 14.39326 120.82454 3248 ft 199 kts 21°
2026-05-06 10:13 14.40447 120.83250 3077 ft 194 kts 58°
2026-05-06 10:13 14.41065 120.84460 2906 ft 194 kts 63°
2026-05-06 10:14 14.41734 120.85666 2719 ft 194 kts 60°
2026-05-06 10:14 14.42439 120.86847 2548 ft 194 kts 60°
2026-05-06 10:14 14.43122 120.88044 2450 ft 194 kts 61°
2026-05-06 10:14 14.43795 120.89245 2266 ft 193 kts 64°
2026-05-06 10:15 14.44462 120.90441 2062 ft 188 kts 63°
2026-05-06 10:15 14.45091 120.91568 1802 ft 174 kts 64°
2026-05-06 10:15 14.45667 120.92602 1597 ft 157 kts 64°
2026-05-06 10:15 14.46189 120.93540 1402 ft 146 kts 64°
2026-05-06 10:16 14.46663 120.94394 1239 ft 141 kts 64°
2026-05-06 10:16 14.47137 120.95246 1062 ft 139 kts 65°
2026-05-06 10:16 14.47606 120.96091 904 ft 136 kts 64°
2026-05-06 10:16 14.48079 120.96938 720 ft 138 kts 63°
2026-05-06 10:17 14.48560 120.97798 571 ft 138 kts 64°
2026-05-06 10:17 14.49040 120.98667 392 ft 141 kts 63°
2026-05-06 10:17 14.49522 120.99541 235 ft 139 kts 63°
2026-05-06 10:17 14.50003 121.00393 48 ft 136 kts 63°
2026-05-06 10:18 14.50413 121.01154 47 ft 97 kts 60°
2026-05-06 10:18 14.50600 121.01488 48 ft 65 kts 60°
2026-05-06 10:18 14.50796 121.01747 50 ft 36 kts 35°
2026-05-06 10:18 14.50890 121.01776 55 ft 10 kts 329°
2026-05-06 10:19 14.50896 121.01729 52 ft 7 kts 251°
2026-05-06 10:19 14.50870 121.01680 54 ft 8 kts 239°
2026-05-06 10:19 14.50839 121.01625 52 ft 9 kts 239°
2026-05-06 10:19 14.50806 121.01566 51 ft 10 kts 240°
2026-05-06 10:20 14.50772 121.01504 50 ft 10 kts 240°
2026-05-06 10:20 14.50737 121.01442 49 ft 10 kts 239°
2026-05-06 10:20 14.50702 121.01382 48 ft 10 kts 239°
2026-05-06 10:20 14.50670 121.01325 48 ft 9 kts 240°
2026-05-06 10:21 14.50640 121.01270 48 ft 10 kts 240°
2026-05-06 10:21 14.50593 121.01186 47 ft 19 kts 239°
2026-05-06 10:21 14.50515 121.01048 45 ft 24 kts 240°
2026-05-06 10:21 14.50434 121.00897 43 ft 24 kts 245°
2026-05-06 10:22 14.50453 121.00793 43 ft 12 kts 259°
2026-05-06 10:22 14.50418 121.00723 42 ft 11 kts 240°
2026-05-06 10:22 14.50372 121.00638 41 ft 21 kts 240°
2026-05-06 10:22 14.50292 121.00493 40 ft 25 kts 240°
2026-05-06 10:23 14.50202 121.00331 39 ft 25 kts 252°
2026-05-06 10:23 14.50290 121.00279 39 ft 15 kts
2026-05-06 10:23 14.50384 121.00288 40 ft 13 kts
2026-05-06 10:23 14.50463 121.00294 41 ft 11 kts
2026-05-06 10:24 14.50524 121.00315 41 ft 8 kts 58°
2026-05-06 10:24 14.50503 121.00356 39 ft 7 kts 133°
2026-05-06 10:24 14.50476 121.00399 39 ft 8 kts 119°
2026-05-06 10:24 14.50469 121.00413 41 ft 3 kts 119°
2026-05-06 10:25 14.50467 121.00416 41 ft 0 kts 120°